Content
SEND FEEDBACK

Daily
Averages
Monthly
Summary
United States of America

MENOMONIE, WISCONSIN


Home > North America > United States > Wisconsin
Elevation: 830 feet     Latitude: 44 56N     Longitude: 091 53W

WEATHER
 
SELECT A DAY
Number of Records: 260,884;   Date Range: 2/19/04 - 10/19/14
 
SHARE

PRINT THIS DATA

[ ← Previous Day ]
WEATHER ALMANAC - JANUARY 31, 2013
[ Next Day → ]
[ °C ]   °F
Weather ElementAverageHighLow
Temperature8 °F12.2 °F (12:35 am)5 °F (5:55 am)
Dewpoint0.5 °F5 °F (3:15 am)-4 °F (8:35 am)
Humidity71.7 %79 % (3:15 am)61 % (11:35 am)
Barometer29.77 in29.93 in (11:35 am)29.68 in (12:35 am)
Wind Speed13.9 mph19.6 mph (8:55 am)
Wind Gust25.3 mph (11:35 am)
Weather ElementAverage
Visibility7 mi
Wind DirectionWNW (278.5 °)

Weather ElementTotal
Precipitation---
Heating Degree Days56.4 (Base 65)
Averaged from 27 records on January 31, 2013
WEATHER CONDITIONS BREAKOUT
WIND DIRECTION BREAKOUT
WEATHER BY HOUR - JANUARY 31, 2013
[ °C ]   °F
Local TimeTemperatureDewpointHumidityBarometerVisibilityWind DirectionWind SpeedGust SpeedPrecipitationEventsConditions
12:35 AM12.2 °F3.2 °F67 %29.68 in10.0 miWest (280°)13.8 mphOvercast
12:55 AM12.2 °F3.2 °F67 %29.69 in10.0 miWNW (290°)13.8 mphOvercast
1:15 AM12.2 °F3.2 °F67 %29.70 in10.0 miWest (280°)11.5 mphOvercast
1:35 AM12.2 °F3.2 °F67 %29.70 in10.0 miWest (280°)11.5 mphOvercast
1:55 AM10.4 °F3.2 °F73 %29.70 in10.0 miWest (280°)12.7 mph18.4 mphOvercast
2:15 AM10.4 °F3.2 °F73 %29.71 in10.0 miWest (280°)12.7 mphOvercast
2:35 AM10.4 °F3.2 °F73 %29.72 in7.0 miWest (280°)13.8 mphSnowLight Snow
2:55 AM10.4 °F3.2 °F73 %29.72 in4.0 miWest (280°)13.8 mphSnowLight Snow
3:15 AM10.4 °F5.0 °F79 %29.72 in4.0 miWest (280°)13.8 mphHaze
3:35 AM10.4 °F3.2 °F73 %29.73 in5.0 miWest (270°)13.8 mph18.4 mphHaze
3:55 AM8.6 °F3.2 °F79 %29.73 in5.0 miWest (270°)15.0 mphHaze
4:15 AM8.6 °F1.4 °F73 %29.73 in3.0 miWest (270°)12.7 mph18.4 mphHaze
4:35 AM8.6 °F1.4 °F73 %29.74 in3.0 miWest (280°)13.8 mph19.6 mphHaze
4:55 AM8.6 °F1.4 °F73 %29.75 in5.0 miWest (270°)16.1 mph19.6 mphHaze
5:15 AM6.8 °F1.4 °F79 %29.75 in5.0 miWest (280°)12.7 mph23.0 mphHaze
5:35 AM6.8 °F-0.4 °F72 %29.75 in10.0 miWest (280°)15.0 mphScattered Clouds
5:55 AM5.0 °F-0.4 °F78 %29.77 in10.0 miWest (280°)13.8 mphClear
6:15 AM5.0 °F-0.4 °F78 %29.78 in10.0 miWest (280°)13.8 mphClear
6:55 AM5.0 °F-0.4 °F78 %29.80 in10.0 miWest (280°)13.8 mphOvercast
7:15 AM5.0 °F-2.2 °F72 %29.81 in10.0 miWest (270°)11.5 mph19.6 mphMostly Cloudy
7:35 AM5.0 °F-2.2 °F72 %29.81 in10.0 miWest (270°)12.7 mphOvercast
8:15 AM5.0 °F-2.2 °F72 %29.83 in4.0 miWest (280°)13.8 mphHaze
8:35 AM5.0 °F-4.0 °F66 %29.84 in3.0 miWest (280°)18.4 mph24.2 mphHaze
8:55 AM5.0 °F-4.0 °F66 %29.86 in7.0 miWest (280°)19.6 mph23.0 mphOvercast
9:15 AM5.0 °F-4.0 °F66 %29.86 in3.0 miWest (280°)15.0 mph20.7 mphHaze
10:15 AM5.0 °F-4.0 °F66 %29.89 in4.0 miWNW (290°)11.5 mph19.6 mphHaze
11:35 AM6.8 °F-4.0 °F61 %29.93 in7.0 miWest (280°)16.1 mph25.3 mphScattered Clouds
Hourly data recorded from KLUM, located miles away from Menomonie, Wisconsin







STORIES FROM OUR PARTNERS